{"data":{"norad_id":69435,"epoch":"2026-09-20T00:56:06.800640Z","epoch_age_seconds":66561,"freshness":"FRESH","line1":"1 69435U 26126R   26263.03896760  .00010068  00000+0  31359-3 0  9990","line2":"2 69435  97.2848 124.2792 0001693  97.9262 262.2173 15.33461901 17507","mean_motion":15.33461901,"eccentricity":0.0001693,"inclination_deg":97.2848,"raan_deg":124.2792,"arg_perigee_deg":97.9262,"mean_anomaly_deg":262.2173,"bstar":0.00031359,"rev_number":1750,"period_min":93.905169672683,"perigee_km":464.33426291456,"apogee_km":466.65151599513,"semimajor_km":6843.6298894548,"source":"CELESTRAK","updated_at":"2026-09-20T09:00:44.197228Z"}}